Date String (YYYY-MM-DD hh:mm:ss) UTC,Instrument flags,absolute air pressure of the measurement (hPa),sample flow rate (lpm),inlet stack bypass flow (lpm),air temperature of the measurement (°C),ambient temperature measured by the external sensor (°C),aerosol sample conditioner tube jacket temperature (°C),OPC LED temperature (°C),internal box temperature (°C),relative humidity of the measurement (%),span deviation,mass concentration of particles derived from Lorenz-Mie calculation of OPC scattering (μg/m³),mass concentration of particles derived from Lorenz-Mie calculation of OPC scattering (μg/m³),mass concentration of particles derived from Lorenz-Mie calculation of OPC scattering (μg/m³)
DateTimeUTC,F1_M11,P_M11,Q1_M11,Q2_M11,T1_M11,T2_M11,T3_M11,T4_M11,T5_M11,U1_M11,ZSPAN_M11,X0_M11,X2_M11,X1_M11
2023-11-20 14:00:00,SystemResetWarning,0830.0,5.00,000.00,023.1,022.1,000.0,031.5,024.5,14.4,0000.0,0003.50,0001.89,0001.74
2023-11-20 14:01:00,SystemResetWarning,0830.1,5.00,000.00,023.1,022.1,000.0,031.5,024.5,14.4,0000.0,0003.51,0001.89,0001.74
2023-11-20 14:02:00,SystemResetWarning,0830.1,5.00,000.00,023.1,022.1,000.0,031.5,024.5,14.4,0000.0,0003.53,0001.90,0001.74
2023-11-20 14:03:00,SystemResetWarning,0830.1,5.00,000.00,023.1,022.2,000.0,031.5,024.5,14.4,0000.0,0003.55,0001.90,0001.74
2023-11-20 14:04:00,SystemResetWarning,0830.1,4.99,000.00,023.1,022.2,000.0,031.5,024.5,14.4,0000.0,0003.49,0001.88,0001.73
2023-11-20 14:05:00,SystemResetWarning,0830.2,4.98,000.00,023.2,022.2,000.0,031.5,024.6,14.4,0000.0,0003.47,0001.86,0001.72
2023-11-20 14:06:00,SystemResetWarning,0830.2,5.01,000.00,023.2,022.2,000.0,031.5,024.5,14.4,0000.0,0003.48,0001.86,0001.72
2023-11-20 14:07:00,SystemResetWarning,0830.2,5.01,000.00,023.2,022.3,000.0,031.5,024.5,14.4,0000.0,0003.68,0001.84,0001.72
2023-11-20 14:08:00,SystemResetWarning,0830.2,4.99,000.00,023.2,022.3,000.0,031.5,024.5,14.5,0000.0,0003.22,0001.83,0001.71
2023-11-20 14:09:00,SystemResetWarning,0830.2,4.99,000.00,023.2,022.3,000.0,031.5,024.5,14.4,0000.0,0002.65,0001.87,0001.72
2023-11-20 14:10:00,SystemResetWarning,0830.2,4.99,000.00,023.2,022.3,000.0,031.5,024.5,14.4,0000.0,0002.66,0001.89,0001.72
2023-11-20 14:11:00,SystemResetWarning,0830.2,5.00,000.00,023.2,022.3,000.0,031.5,024.5,14.4,0000.0,0002.71,0001.91,0001.73
2023-11-20 14:12:00,SystemResetWarning,0830.2,5.00,000.00,023.2,022.3,000.0,031.5,024.6,14.4,0000.0,0002.74,0001.92,0001.72
2023-11-20 14:13:00,SystemResetWarning,0830.3,5.01,000.00,023.2,022.3,000.0,031.5,024.6,14.4,0000.0,0002.77,0001.95,0001.75
2023-11-20 14:14:00,SystemResetWarning,0830.3,5.00,000.00,023.2,022.3,000.0,031.5,024.5,14.4,0000.0,0002.89,0001.98,0001.76
2023-11-20 14:15:00,SystemResetWarning,0830.3,5.00,000.00,023.2,022.3,000.0,031.5,024.5,14.5,0000.0,0003.12,0002.02,0001.78
2023-11-20 14:16:00,SystemResetWarning,0830.3,5.00,000.00,023.2,022.3,000.0,031.5,024.5,14.5,0000.0,0003.14,0002.04,0001.80
2023-11-20 14:17:00,SystemResetWarning,0830.3,5.00,000.00,023.2,022.3,000.0,031.5,024.5,14.4,0000.0,0003.15,0002.06,0001.81
2023-11-20 14:18:00,SystemResetWarning,0830.4,5.00,000.00,023.2,022.3,000.0,031.5,024.5,14.4,0000.0,0002.93,0002.07,0001.81
2023-11-20 14:19:00,SystemResetWarning,0830.4,5.00,000.00,023.2,022.3,000.0,031.5,024.6,14.5,0000.0,0002.94,0002.09,0001.83
2023-11-20 14:20:00,SystemResetWarning,0830.5,5.00,000.00,023.2,022.3,000.0,031.5,024.6,14.5,0000.0,0002.85,0002.04,0001.83
2023-11-20 14:21:00,SystemResetWarning,0830.4,5.00,000.00,023.2,022.3,000.0,031.5,024.6,14.5,0000.0,0002.92,0002.06,0001.84
2023-11-20 14:22:00,SystemResetWarning,0830.4,5.00,000.00,023.2,022.3,000.0,031.5,024.6,14.5,0000.0,0003.03,0002.07,0001.84
2023-11-20 14:23:00,SystemResetWarning,0830.6,4.99,000.00,023.2,022.3,000.0,031.5,024.6,14.5,0000.0,0002.99,0002.05,0001.84
2023-11-20 14:24:00,SystemResetWarning,0830.4,5.00,000.00,023.2,022.3,000.0,031.5,024.6,14.5,0000.0,0002.96,0002.02,0001.82
2023-11-20 14:25:00,SystemResetWarning,0830.5,4.99,000.00,023.2,022.3,000.0,031.5,024.5,14.5,0000.0,0002.89,0001.99,0001.81
2023-11-20 14:26:00,SystemResetWarning,0830.6,5.00,000.00,023.2,022.3,000.0,031.5,024.5,14.5,0000.0,0002.65,0001.98,0001.81
2023-11-20 14:27:00,SystemResetWarning,0830.5,5.00,000.00,023.2,022.3,000.0,031.5,024.5,14.5,0000.0,0002.81,0001.96,0001.80
2023-11-20 14:28:00,SystemResetWarning,0830.5,5.00,000.00,023.2,022.3,000.0,031.5,024.5,14.5,0000.0,0002.82,0001.95,0001.80
2023-11-20 14:29:00,SystemResetWarning,0830.5,5.01,000.00,023.2,022.3,000.0,031.5,024.6,14.5,0000.0,0002.80,0001.95,0001.79
2023-11-20 14:30:00,SystemResetWarning,0830.6,5.00,000.00,023.2,022.3,000.0,031.5,024.6,14.6,0000.0,0002.83,0001.98,0001.80
2023-11-20 14:31:00,SystemResetWarning,0830.6,5.00,000.00,023.2,022.3,000.0,031.5,024.6,14.5,0000.0,0002.77,0001.96,0001.79
2023-11-20 14:32:00,SystemResetWarning,0830.6,5.00,000.00,023.2,022.3,000.0,031.5,024.6,14.5,0000.0,0002.89,0001.95,0001.78
2023-11-20 14:33:00,SystemResetWarning,0830.7,5.00,000.00,023.2,022.3,000.0,031.5,024.6,14.5,0000.0,0002.81,0001.94,0001.77
2023-11-20 14:34:00,SystemResetWarning,0830.7,4.99,000.00,023.2,022.3,000.0,031.5,024.5,14.5,0000.0,0002.80,0001.93,0001.76
2023-11-20 14:35:00,SystemResetWarning,0830.6,4.99,000.00,023.2,022.3,000.0,031.5,024.6,14.6,0000.0,0002.83,0001.94,0001.76
2023-11-20 14:36:00,SystemResetWarning,0830.7,5.01,000.00,023.2,022.3,000.0,031.5,024.6,14.5,0000.0,0004.19,0001.92,0001.74
2023-11-20 14:37:00,SystemResetWarning,0830.8,5.01,000.00,023.2,022.3,000.0,031.5,024.6,14.6,0000.0,0004.59,0001.90,0001.72
2023-11-20 14:38:00,SystemResetWarning,0830.9,5.01,000.00,023.2,022.3,000.0,031.5,024.6,14.6,0000.0,0004.46,0001.90,0001.72
2023-11-20 14:39:00,SystemResetWarning,0830.8,5.00,000.00,023.2,022.3,000.0,031.5,024.6,14.7,0000.0,0004.43,0001.90,0001.70
2023-11-20 14:40:00,SystemResetWarning,0830.8,5.01,000.00,023.2,022.3,000.0,031.5,024.6,14.6,0000.0,0004.40,0001.88,0001.69
2023-11-20 14:41:00,SystemResetWarning,0830.9,5.00,000.00,023.2,022.3,000.0,031.5,024.6,14.6,0000.0,0004.32,0001.83,0001.67
2023-11-20 14:42:00,SystemResetWarning,0830.9,4.99,000.00,023.2,022.3,000.0,031.5,024.6,14.7,0000.0,0004.35,0001.82,0001.65
2023-11-20 14:43:00,SystemResetWarning,0830.9,4.99,000.00,023.2,022.3,000.0,031.5,024.6,14.7,0000.0,0004.21,0001.80,0001.64
2023-11-20 14:44:00,SystemResetWarning,0830.9,5.00,000.00,023.2,022.3,000.0,031.5,024.6,14.7,0000.0,0004.22,0001.80,0001.62
2023-11-20 14:45:00,SystemResetWarning,0830.9,5.01,000.00,023.2,022.3,000.0,031.5,024.6,14.7,0000.0,0004.24,0001.78,0001.59
2023-11-20 14:46:00,SystemResetWarning,0831.0,5.00,000.00,023.2,022.3,000.0,031.5,024.5,14.7,0000.0,0004.25,0001.75,0001.56
2023-11-20 14:47:00,SystemResetWarning,0831.1,5.01,000.00,023.2,022.3,000.0,031.5,024.5,14.8,0000.0,0003.26,0001.72,0001.54
2023-11-20 14:48:00,SystemResetWarning,0831.1,5.00,000.00,023.2,022.3,000.0,031.5,024.6,14.9,0000.0,0002.39,0001.70,0001.51
2023-11-20 14:49:00,SystemResetWarning,0831.1,5.00,000.00,023.2,022.3,000.0,031.5,024.5,14.9,0000.0,0002.47,0001.69,0001.48
2023-11-20 14:50:00,SystemResetWarning,0831.1,4.99,000.00,023.2,022.3,000.0,031.5,024.6,14.9,0000.0,0002.56,0001.66,0001.45
2023-11-20 14:51:00,SystemResetWarning,0831.1,4.99,000.00,023.2,022.3,000.0,031.5,024.5,14.8,0000.0,0002.67,0001.64,0001.41
2023-11-20 14:52:00,SystemResetWarning,0831.1,5.01,000.00,023.2,022.3,000.0,031.5,024.5,14.7,0000.0,0002.71,0001.62,0001.39
2023-11-20 14:53:00,SystemResetWarning,0831.1,5.01,000.00,023.2,022.3,000.0,031.5,024.5,14.8,0000.0,0002.64,0001.59,0001.38
2023-11-20 14:54:00,SystemResetWarning,0831.1,5.01,000.00,023.2,022.3,000.0,031.5,024.5,14.8,0000.0,0002.99,0001.61,0001.36
2023-11-20 14:55:00,SystemResetWarning,0831.1,5.00,000.00,023.2,022.3,000.0,031.5,024.5,15.0,0000.0,0003.30,0001.64,0001.35
2023-11-20 14:56:00,SystemResetWarning,0831.2,4.99,000.00,023.2,022.3,000.0,031.5,024.5,14.9,0000.0,0003.31,0001.65,0001.34
2023-11-20 14:57:00,SystemResetWarning,0831.1,5.00,000.00,023.2,022.2,000.0,031.5,024.5,14.9,0000.0,0003.23,0001.65,0001.34
2023-11-20 14:58:00,SystemResetWarning,0831.2,5.00,000.00,023.2,022.2,000.0,031.5,024.4,15.0,0000.0,0003.31,0001.65,0001.33
2023-11-20 14:59:00,SystemResetWarning,0831.3,5.00,000.00,023.2,022.2,000.0,031.5,024.5,15.0,0000.0,0003.31,0001.63,0001.31
